"Pseudo-MPEC" for C1HP3P2

Created 2019 Dec 6 14:07:15 UT using Find_Orb

Click here for an explanation of pseudo-MPECs

 
 Astrometry: 
     C1HP3P2  C2019 12 02.49429 11 00 52.83 +34 21 11.7    ~C2DM 21.6 GVNEOCPG96
     C1HP3P2  C2019 12 02.49942 11 00 53.85 +34 21 15.4    ~C2DM 21.2 GVNEOCPG96
     C1HP3P2  C2019 12 02.50457 11 00 54.85 +34 21 18.6    ~C2DM 21.4 GVNEOCPG96
     C1HP3P2  C2019 12 02.50971 11 00 55.86 +34 21 22.5    ~C2DM 21.3 GVNEOCPG96
     C1HP3P2  C2019 12 02.53463 11 01 00.75 +34 21 39.3    ~C2Db 21.1 GVNEOCPG96
     C1HP3P2  C2019 12 02.53725 11 01 01.27 +34 21 41.1    ~C2Db       VNEOCPG96
     C1HP3P2  C2019 12 02.53988 11 01 01.77 +34 21 44.1    ~C2Db       VNEOCPG96
     C1HP3P2  C2019 12 02.54133 11 01 02.07 +34 21 44.3    ~C2Db       VNEOCPG96
     C1HP3P2  C2019 12 03.43613 11 04 01.49 +34 31 43.4    ~C3Aq 22.1 GVNEOCPI52
     C1HP3P2  C2019 12 03.43904 11 04 02.13 +34 31 44.8    ~C3Aq 21.3 GVNEOCPI52
     C1HP3P2  C2019 12 03.44196 11 04 02.70 +34 31 47.5    ~C3Aq 21.5 GVNEOCPI52
     C1HP3P2  C2019 12 03.44488 11 04 03.21 +34 31 49.3    ~C3Aq 21.4 GVNEOCPI52
     C1HP3P2 KC2019 12 05NDJHAe8L/A=Typ1@l)IW%2+XVi\q[fsA^Astrometry:Gm=B0qB\H21
     C1HP3P2 KC2019 12 05bLf1redacted;)EwiGVyjlaM(ZOclick#rjJeaheremuX5Unw'4cH21
     C1HP3P2 KC2019 12 05dY`-Zp-Jc#ej_y@cforqd3\K1];@+m!@VfSexplanationpM4gZ8H21
     C1HP3P2  C2019 12 06.47073 11 14 11.50 +35 06 03.1    ~C6Bq 21.5 GVNEOCPG96
     C1HP3P2  C2019 12 06.47540 11 14 12.55 +35 06 05.5    ~C6Bq 20.4 GVNEOCPG96
     C1HP3P2  C2019 12 06.47685 11 14 12.78 +35 06 06.8    ~C6Bq 20.2 GVNEOCPG96
     C1HP3P2  C2019 12 06.47988 11 14 13.34 +35 06 09.1    ~C6Bq 21.3 GVNEOCPG96

Station data:
(G96) Mt. Lemmon Survey  (N32.442754 W110.788720)  US/Arizona.  Observers T.
   A. Pruyne, B. M. Africano, E. J. Christensen, G. A. Farneth, D. C. Fuls,
   A. R. Gibbs, A. D. Grauer, H. Gröller, J. A. Johnson, R. A. Kowalski, S.
   M. Larson, G. J. Leonard, D. Rankin, R. L. Seaman, F. C. Shelly. 1.5-m
   reflector + 10K CCD.
(H21) Astronomical Research Observatory, Westfield  (N39.483057 W87.968270)
   US/Illinois. 0.76-m f/3.0 astrograph + CCD.
(I52) Steward Observatory, Mt. Lemmon Station  (N32.442547 W110.788920)
   US/Arizona.  Observers T. A. Pruyne, B. M. Africano, E. J. Christensen, G.
   A. Farneth, D. C. Fuls, A. R. Gibbs, A. D. Grauer, H. Gröller, J. A.
   Johnson, R. A. Kowalski, S. M. Larson, G. J. Leonard, D. Rankin, R. L.
   Seaman, F. C. Shelly. 1.0-m reflector + CCD.

Orbital elements:  C1HP3P2
   Perihelion 2020 Jan 19.446502 +/- 2.05 TT = 10:42:57 (JD 2458867.946502)
Epoch 2019 Dec  6.0 TT = JDT 2458823.5   Earth MOID: 0.7646   AutoNEOCP
M 349.84758737 +/- 1.3              (J2000 ecliptic)
n   0.22841870 +/- 0.0212           Peri.   67.63169 +/- 1.3
a   2.65042144 +/- 0.16             Node    77.04474 +/- 0.58
e   0.4037117 +/- 0.0318            Incl.   29.51778 +/- 0.29
P   4.31                   H 18.7   G  0.15   U 10.2  
q 1.58041513 +/- 0.0142    Q 3.72042775 +/- 0.341
From 19 observations 2019 Dec. 2-6; mean residual 0".40
Residuals in arcseconds: 
191202 G96  .13+  .32-    191202 G96  .20-  .45+    191205 H21  .26-  .38+    
191202 G96  .24+  .10-    191203 I52  .16-  .12-    191206 G96  .55-  .30+    
191202 G96  .05+  .40-    191203 I52  .62+  .72-    191206 G96  .93+  .55-    
191202 G96  .02+  .02+    191203 I52  .51+  .03-    191206 G96  .21+  .26-    
191202 G96  .21-  .03-    191203 I52  .34-  .25-    191206 G96  .31-  .07-    
191202 G96  .16-  .00     191205 H21  .03-  .42+    
191202 G96  .38-  1.2+    191205 H21  .21-  .19+    

Ephemerides (geocentric):
Date (UTC) HH   RA              Dec         delta   r     elong  mag " sig PA
---- -- -- --  -------------   -----------  ------ ------ -----  --- ---- ---
2019 12 06 14  11 14 33.955   +35 07 20.09  1.1628 1.6253  98.0 21.6 .173 158
2019 12 06 15  11 14 42.360   +35 07 48.59  1.1625 1.6252  98.0 21.6 .188 159
2019 12 06 16  11 14 50.765   +35 08 17.09  1.1621 1.6251  98.0 21.6 .204 160
2019 12 06 17  11 14 59.171   +35 08 45.60  1.1618 1.6250  98.0 21.6 .220 161
2019 12 06 18  11 15 07.577   +35 09 14.12  1.1615 1.6249  98.0 21.6 .237 162
2019 12 06 19  11 15 15.985   +35 09 42.64  1.1612 1.6248  98.1 21.6 .253 162
2019 12 06 20  11 15 24.392   +35 10 11.16  1.1609 1.6248  98.1 21.6 .270 163
2019 12 06 21  11 15 32.801   +35 10 39.69  1.1606 1.6247  98.1 21.6 .288 163
2019 12 06 22  11 15 41.210   +35 11 08.23  1.1603 1.6246  98.1 21.6 .306 164
2019 12 06 23  11 15 49.619   +35 11 36.77  1.1600 1.6245  98.1 21.6 .324 164
2019 12 07 00  11 15 58.029   +35 12 05.32  1.1597 1.6244  98.1 21.6 .342 165
2019 12 07 01  11 16 06.440   +35 12 33.87  1.1594 1.6244  98.1 21.6 .361 165
2019 12 07 02  11 16 14.851   +35 13 02.43  1.1591 1.6243  98.2 21.6 .380 165
2019 12 07 03  11 16 23.263   +35 13 30.99  1.1588 1.6242  98.2 21.6 .400 166
2019 12 07 04  11 16 31.676   +35 13 59.56  1.1585 1.6241  98.2 21.6 .419 166
2019 12 07 05  11 16 40.089   +35 14 28.13  1.1582 1.6240  98.2 21.6 .440 166
2019 12 07 06  11 16 48.503   +35 14 56.71  1.1579 1.6239  98.2 21.6 .460 166
2019 12 07 07  11 16 56.917   +35 15 25.30  1.1576 1.6239  98.2 21.6 .481 167
2019 12 07 08  11 17 05.332   +35 15 53.89  1.1573 1.6238  98.2 21.6 .502 167
2019 12 07 09  11 17 13.748   +35 16 22.48  1.1570 1.6237  98.3 21.6 .523 167
2019 12 07 10  11 17 22.164   +35 16 51.08  1.1567 1.6236  98.3 21.6 .545 167
2019 12 07 11  11 17 30.581   +35 17 19.69  1.1563 1.6235  98.3 21.6 .567 168
2019 12 07 12  11 17 38.998   +35 17 48.30  1.1560 1.6235  98.3 21.6 .589 168
2019 12 07 13  11 17 47.416   +35 18 16.91  1.1557 1.6234  98.3 21.6 .612 168
2019 12 07 14  11 17 55.834   +35 18 45.54  1.1554 1.6233  98.3 21.6 .635 168
2019 12 07 15  11 18 04.253   +35 19 14.16  1.1551 1.6232  98.3 21.6 .659 168
2019 12 07 16  11 18 12.673   +35 19 42.80  1.1548 1.6231  98.3 21.6 .682 168
2019 12 07 17  11 18 21.093   +35 20 11.43  1.1545 1.6230  98.4 21.6 .706 169
2019 12 07 18  11 18 29.514   +35 20 40.08  1.1542 1.6230  98.4 21.6 .731 169
2019 12 07 19  11 18 37.935   +35 21 08.72  1.1539 1.6229  98.4 21.6 .755 169
2019 12 07 20  11 18 46.357   +35 21 37.38  1.1536 1.6228  98.4 21.6 .781 169
2019 12 07 21  11 18 54.780   +35 22 06.03  1.1533 1.6227  98.4 21.6 .806 169
2019 12 07 22  11 19 03.203   +35 22 34.70  1.1530 1.6226  98.4 21.6 .832 169
2019 12 07 23  11 19 11.626   +35 23 03.37  1.1527 1.6226  98.4 21.6 .858 169
2019 12 08 00  11 19 20.050   +35 23 32.04  1.1524 1.6225  98.5 21.6 .884 170
2019 12 08 01  11 19 28.475   +35 24 00.72  1.1521 1.6224  98.5 21.6 .911 170
2019 12 08 02  11 19 36.900   +35 24 29.40  1.1518 1.6223  98.5 21.6 .938 170
2019 12 08 03  11 19 45.326   +35 24 58.09  1.1515 1.6222  98.5 21.6 .965 170
2019 12 08 04  11 19 53.752   +35 25 26.79  1.1512 1.6222  98.5 21.6 0.99 170
2019 12 08 05  11 20 02.179   +35 25 55.49  1.1509 1.6221  98.5 21.6 1.02 170
2019 12 08 06  11 20 10.606   +35 26 24.19  1.1506 1.6220  98.5 21.6 1.05 170
2019 12 08 07  11 20 19.034   +35 26 52.90  1.1503 1.6219  98.6 21.6 1.08 170
2019 12 08 08  11 20 27.462   +35 27 21.61  1.1500 1.6218  98.6 21.5 1.11 170
2019 12 08 09  11 20 35.891   +35 27 50.33  1.1497 1.6218  98.6 21.5 1.14 171
2019 12 08 10  11 20 44.321   +35 28 19.06  1.1494 1.6217  98.6 21.5 1.17 171
2019 12 08 11  11 20 52.751   +35 28 47.79  1.1491 1.6216  98.6 21.5 1.20 171
2019 12 08 12  11 21 01.181   +35 29 16.52  1.1488 1.6215  98.6 21.5 1.23 171
2019 12 08 13  11 21 09.612   +35 29 45.26  1.1486 1.6214  98.6 21.5 1.26 171